| time (UTC) | temp F | wind direction | speed MPH | gust MPH | rain 1hr in | rain 24hr in | rain mn in | humidity % | barometer mb |
| 20260901043130 | 79 | 118 | 0.0 | 1.0 | 0.00 | 0.00 | 0.00 | 87 | 1013.0 |
| 20260901042859 | 80 | 118 | 0.0 | 0.0 | 0.00 | 0.00 | 0.00 | 87 | 1013.3 |
| 20260901042114 | 80 | 118 | 0.0 | 0.0 | 0.00 | 0.00 | 0.00 | 87 | 1013.3 |
| 20260901041604 | 80 | 118 | 0.0 | 1.0 | 0.00 | 0.00 | 0.00 | 87 | 1013.3 |
| 20260901041323 | 80 | 118 | 1.0 | 3.0 | 0.00 | 0.00 | 0.00 | 86 | 1013.1 |
| 20260901040544 | 80 | 118 | 1.0 | 3.0 | 0.00 | 0.00 | 0.00 | 86 | 1013.1 |
| 20260901040036 | 80 | 118 | 2.0 | 3.0 | 0.00 | 0.00 | 0.00 | 86 | 1013.1 |
| 20260901035530 | 80 | 118 | 2.0 | 3.0 | 0.00 | 0.00 | 0.00 | 86 | 1013.0 |
| 20260901035023 | 80 | 118 | 2.0 | 3.0 | 0.00 | 0.00 | 0.00 | 86 | 1013.0 |
| 20260901034513 | 80 | 118 | 1.0 | 3.0 | 0.00 | 0.00 | 0.00 | 86 | 1013.0 |
| 20260901034008 | 80 | 118 | 1.0 | 4.0 | 0.00 | 0.00 | 0.00 | 86 | 1013.0 |
| 20260901033502 | 80 | 118 | 1.0 | 4.0 | 0.00 | 0.00 | 0.00 | 85 | 1013.0 |
| 20260901032951 | 80 | 118 | 2.0 | 4.0 | 0.00 | 0.00 | 0.00 | 85 | 1012.9 |
| 20260901032442 | 80 | 118 | 3.0 | 5.0 | 0.00 | 0.00 | 0.00 | 85 | 1012.9 |
| 20260901031931 | 80 | 117 | 4.0 | 5.0 | 0.00 | 0.00 | 0.00 | 86 | 1012.9 |
| 20260901031650 | 80 | 126 | 3.0 | 5.0 | 0.00 | 0.00 | 0.00 | 85 | 1012.8 |
| 20260901030912 | 80 | 130 | 3.0 | 4.0 | 0.00 | 0.00 | 0.00 | 86 | 1012.8 |
| 20260901030401 | 80 | 149 | 2.0 | 4.0 | 0.00 | 0.00 | 0.00 | 85 | 1012.8 |
| 20260901025401 | 81 | 149 | 2.0 | 4.0 | 0.00 | 0.00 | 0.00 | 86 | 1012.5 |
| 20260901025124 | 81 | 149 | 3.0 | 5.0 | 0.00 | 0.00 | 0.00 | 86 | 1012.5 |
| 20260901024359 | 80 | 151 | 3.0 | 5.0 | 0.00 | 0.00 | 0.00 | 86 | 1012.3 |
| 20260901023852 | 81 | 153 | 3.0 | 5.0 | 0.00 | 0.00 | 0.00 | 86 | 1012.3 |
| 20260901023352 | 81 | 155 | 3.0 | 7.0 | 0.00 | 0.00 | 0.00 | 85 | 1012.3 |
| 20260901022852 | 81 | 151 | 4.0 | 7.0 | 0.00 | 0.00 | 0.00 | 85 | 1012.0 |
| 20260901022353 | 81 | 160 | 4.0 | 7.0 | 0.00 | 0.00 | 0.00 | 85 | 1012.0 |
| 20260901021852 | 81 | 165 | 4.0 | 5.0 | 0.00 | 0.00 | 0.00 | 84 | 1012.0 |
| 20260901021354 | 82 | 160 | 4.0 | 5.0 | 0.00 | 0.00 | 0.00 | 84 | 1011.9 |
| 20260901020853 | 82 | 159 | 4.0 | 6.0 | 0.00 | 0.00 | 0.00 | 84 | 1011.9 |
| 20260901020348 | 82 | 156 | 4.0 | 8.0 | 0.00 | 0.00 | 0.00 | 83 | 1011.9 |
| 20260901015841 | 82 | 144 | 4.0 | 9.0 | 0.00 | 0.00 | 0.00 | 83 | 1011.5 |
| 20260901015336 | 82 | 147 | 4.0 | 9.0 | 0.00 | 0.00 | 0.00 | 83 | 1011.5 |
| 20260901014835 | 83 | 146 | 5.0 | 9.0 | 0.00 | 0.00 | 0.00 | 82 | 1011.5 |
| 20260901014331 | 83 | 157 | 4.0 | 9.0 | 0.00 | 0.00 | 0.00 | 81 | 1011.5 |
| 20260901013831 | 83 | 90 | 4.0 | 9.0 | 0.00 | 0.00 | 0.00 | 81 | 1011.5 |
| 20260901013331 | 84 | 131 | 5.0 | 9.0 | 0.00 | 0.00 | 0.00 | 80 | 1011.5 |
| 20260901012826 | 84 | 90 | 5.0 | 8.0 | 0.00 | 0.00 | 0.00 | 80 | 1011.5 |
| 20260901012326 | 85 | 90 | 6.0 | 9.0 | 0.00 | 0.00 | 0.00 | 79 | 1011.5 |
| 20260901011827 | 85 | 141 | 6.0 | 13.0 | 0.00 | 0.00 | 0.00 | 79 | 1011.5 |
| 20260901011327 | 85 | 127 | 6.0 | 13.0 | 0.00 | 0.00 | 0.00 | 78 | 1011.7 |
| 20260901010830 | 85 | 145 | 7.0 | 13.0 | 0.00 | 0.00 | 0.00 | 78 | 1011.7 |
| 20260901010316 | 86 | 132 | 8.0 | 15.0 | 0.00 | 0.00 | 0.00 | 77 | 1011.7 |
| 20260901005816 | 86 | 116 | 8.0 | 15.0 | 0.00 | 0.00 | 0.00 | 77 | 1011.7 |
| 20260901005319 | 86 | 131 | 9.0 | 15.0 | 0.00 | 0.00 | 0.00 | 76 | 1011.7 |
| 20260901004816 | 87 | 119 | 10.0 | 15.0 | 0.00 | 0.00 | 0.00 | 76 | 1011.7 |
| 20260901004539 | 87 | 101 | 9.0 | 18.0 | 0.00 | 0.00 | 0.00 | 76 | 1011.6 |
| 20260901004052 | 87 | 110 | 10.0 | 18.0 | 0.00 | 0.00 | 0.00 | 75 | 1011.6 |
| 20260901003315 | 87 | 132 | 11.0 | 18.0 | 0.00 | 0.00 | 0.00 | 75 | 1011.6 |
| 20260901002815 | 88 | 118 | 11.0 | 18.0 | 0.00 | 0.00 | 0.00 | 75 | 1011.4 |
| 20260901002305 | 88 | 102 | 10.0 | 17.0 | 0.00 | 0.00 | 0.00 | 74 | 1011.4 |
| 20260901001803 | 88 | 140 | 9.0 | 13.0 | 0.00 | 0.00 | 0.00 | 75 | 1011.4 |
| 20260901001302 | 88 | 145 | 9.0 | 14.0 | 0.00 | 0.00 | 0.00 | 75 | 1011.4 |
| 20260901000802 | 88 | 90 | 9.0 | 15.0 | 0.00 | 0.00 | 0.00 | 75 | 1011.4 |
| 20260901000300 | 88 | 157 | 9.0 | 17.0 | 0.00 | 0.00 | 0.00 | 75 | 1011.4 |
| 20260831235800 | 88 | 167 | 10.0 | 17.0 | 0.00 | 0.00 | 0.00 | 75 | 1011.4 |
| 20260831235301 | 88 | 145 | 10.0 | 16.0 | 0.00 | 0.00 | 0.00 | 75 | 1011.4 |
| 20260831234801 | 89 | 176 | 10.0 | 17.0 | 0.00 | 0.00 | 0.00 | 75 | 1011.4 |
| 20260831234301 | 89 | 137 | 10.0 | 17.0 | 0.00 | 0.00 | 0.00 | 74 | 1011.3 |
| 20260831233801 | 89 | 90 | 10.0 | 17.0 | 0.00 | 0.00 | 0.00 | 74 | 1011.3 |
| 20260831233254 | 90 | 90 | 10.0 | 17.0 | 0.00 | 0.00 | 0.00 | 72 | 1011.3 |
| 20260831232755 | 91 | 115 | 10.0 | 17.0 | 0.00 | 0.00 | 0.00 | 71 | 1011.3 |
| 20260831232523 | 92 | 90 | 10.0 | 17.0 | 0.00 | 0.00 | 0.00 | 69 | 1011.3 |
| 20260831231758 | 92 | 90 | 9.0 | 16.0 | 0.00 | 0.00 | 0.00 | 68 | 1011.3 |
| 20260831230752 | 93 | 141 | 8.0 | 16.0 | 0.00 | 0.00 | 0.00 | 63 | 1011.3 |
| 20260831230247 | 93 | 137 | 9.0 | 16.0 | 0.00 | 0.00 | 0.00 | 60 | 1011.3 |
| 20260831225755 | 94 | 90 | 9.0 | 15.0 | 0.00 | 0.00 | 0.00 | 58 | 1011.2 |
| 20260831225248 | 94 | 131 | 10.0 | 16.0 | 0.00 | 0.00 | 0.00 | 57 | 1011.2 |
| 20260831224748 | 94 | 90 | 10.0 | 16.0 | 0.00 | 0.00 | 0.00 | 57 | 1011.2 |
| 20260831224249 | 95 | 122 | 9.0 | 16.0 | 0.00 | 0.00 | 0.00 | 56 | 1011.3 |
| 20260831223749 | 95 | 128 | 10.0 | 16.0 | 0.00 | 0.00 | 0.00 | 56 | 1011.3 |
| 20260831223242 | 95 | 90 | 10.0 | 19.0 | 0.00 | 0.00 | 0.00 | 54 | 1011.3 |
| 20260831222742 | 95 | 133 | 11.0 | 19.0 | 0.00 | 0.00 | 0.00 | 54 | 1011.2 |
| 20260831222459 | 94 | 101 | 12.0 | 19.0 | 0.00 | 0.00 | 0.00 | 58 | 1011.2 |
| 20260831221738 | 94 | 135 | 11.0 | 19.0 | 0.00 | 0.00 | 0.00 | 59 | 1011.2 |
| 20260831221236 | 95 | 148 | 11.0 | 18.0 | 0.00 | 0.00 | 0.00 | 61 | 1011.2 |
| 20260831220735 | 95 | 90 | 11.0 | 20.0 | 0.00 | 0.00 | 0.00 | 62 | 1011.2 |
| 20260831220235 | 95 | 137 | 12.0 | 20.0 | 0.00 | 0.00 | 0.00 | 63 | 1011.2 |
| 20260831215735 | 95 | 137 | 13.0 | 20.0 | 0.00 | 0.00 | 0.00 | 63 | 1011.2 |
| 20260831215232 | 95 | 130 | 13.0 | 20.0 | 0.00 | 0.00 | 0.00 | 64 | 1011.2 |
| 20260831214731 | 96 | 85 | 12.0 | 20.0 | 0.00 | 0.00 | 0.00 | 62 | 1011.2 |
| 20260831214459 | 96 | 128 | 10.0 | 20.0 | 0.00 | 0.00 | 0.00 | 60 | 1011.2 |
| 20260831213732 | 96 | 90 | 10.0 | 17.0 | 0.00 | 0.00 | 0.00 | 57 | 1011.2 |
| 20260831213227 | 96 | 141 | 9.0 | 17.0 | 0.00 | 0.00 | 0.00 | 56 | 1011.2 |
| 20260831212959 | 97 | 120 | 9.0 | 17.0 | 0.00 | 0.00 | 0.00 | 56 | 1011.2 |
| 20260831212227 | 97 | 126 | 9.0 | 17.0 | 0.00 | 0.00 | 0.00 | 56 | 1011.2 |
| 20260831211727 | 97 | 126 | 9.0 | 16.0 | 0.00 | 0.00 | 0.00 | 56 | 1011.2 |
| 20260831211232 | 97 | 90 | 9.0 | 16.0 | 0.00 | 0.00 | 0.00 | 59 | 1011.3 |
| 20260831210728 | 97 | 90 | 8.0 | 16.0 | 0.00 | 0.00 | 0.00 | 59 | 1011.3 |
| 20260831210225 | 97 | 130 | 8.0 | 16.0 | 0.00 | 0.00 | 0.00 | 59 | 1011.3 |
| 20260831205955 | 97 | 90 | 7.0 | 13.0 | 0.00 | 0.00 | 0.00 | 54 | 1011.8 |
| 20260831205451 | 97 | 146 | 7.0 | 12.0 | 0.00 | 0.00 | 0.00 | 54 | 1011.8 |
| 20260831204725 | 96 | 109 | 7.0 | 13.0 | 0.00 | 0.00 | 0.00 | 55 | 1011.8 |
| 20260831204226 | 95 | 154 | 7.0 | 13.0 | 0.00 | 0.00 | 0.00 | 56 | 1011.9 |
| 20260831203725 | 95 | 139 | 7.0 | 11.0 | 0.00 | 0.00 | 0.00 | 57 | 1011.9 |
| 20260831203443 | 96 | 115 | 6.0 | 14.0 | 0.00 | 0.00 | 0.00 | 55 | 1011.9 |
| 20260831202725 | 97 | 193 | 7.0 | 14.0 | 0.00 | 0.00 | 0.00 | 53 | 1012.2 |
| 20260831202225 | 97 | 90 | 7.0 | 15.0 | 0.00 | 0.00 | 0.00 | 53 | 1012.2 |
| 20260831201724 | 97 | 175 | 7.0 | 15.0 | 0.00 | 0.00 | 0.00 | 54 | 1012.2 |
| 20260831201226 | 96 | 150 | 7.0 | 13.0 | 0.00 | 0.00 | 0.00 | 56 | 1012.4 |
| 20260831200727 | 96 | 90 | 7.0 | 13.0 | 0.00 | 0.00 | 0.00 | 56 | 1012.4 |
| 20260831200225 | 95 | 147 | 7.0 | 12.0 | 0.00 | 0.00 | 0.00 | 58 | 1012.4 |
| 20260831195724 | 96 | 208 | 7.0 | 12.0 | 0.00 | 0.00 | 0.00 | 61 | 1012.6 |
| 20260831195221 | 96 | 215 | 7.0 | 13.0 | 0.00 | 0.00 | 0.00 | 58 | 1012.6 |
| 20260831194720 | 96 | 175 | 6.0 | 13.0 | 0.00 | 0.00 | 0.00 | 57 | 1012.6 |
| 20260831194220 | 96 | 90 | 6.0 | 14.0 | 0.00 | 0.00 | 0.00 | 59 | 1012.9 |
| 20260831193945 | 95 | 157 | 7.0 | 14.0 | 0.00 | 0.00 | 0.00 | 59 | 1012.9 |
| 20260831193219 | 95 | 115 | 9.0 | 14.0 | 0.00 | 0.00 | 0.00 | 59 | 1012.9 |
| 20260831192724 | 94 | 165 | 10.0 | 14.0 | 0.00 | 0.00 | 0.00 | 61 | 1013.0 |
| 20260831192216 | 94 | 90 | 9.0 | 14.0 | 0.00 | 0.00 | 0.00 | 62 | 1013.0 |
| 20260831191941 | 95 | 134 | 9.0 | 15.0 | 0.00 | 0.00 | 0.00 | 62 | 1013.0 |
| 20260831191430 | 94 | 134 | 10.0 | 19.0 | 0.00 | 0.00 | 0.00 | 63 | 1013.5 |
| 20260831190659 | 94 | 107 | 11.0 | 19.0 | 0.00 | 0.00 | 0.00 | 64 | 1013.5 |
| 20260831190153 | 94 | 125 | 12.0 | 19.0 | 0.00 | 0.00 | 0.00 | 64 | 1013.5 |
| 20260831185644 | 95 | 139 | 12.0 | 19.0 | 0.00 | 0.00 | 0.00 | 61 | 1013.9 |
| 20260831185134 | 94 | 139 | 13.0 | 19.0 | 0.00 | 0.00 | 0.00 | 65 | 1013.9 |
| 20260831184620 | 93 | 127 | 13.0 | 19.0 | 0.00 | 0.00 | 0.00 | 65 | 1013.9 |
| 20260831184111 | 94 | 105 | 10.0 | 18.0 | 0.00 | 0.00 | 0.00 | 65 | 1013.9 |
| 20260831183607 | 95 | 134 | 7.0 | 16.0 | 0.00 | 0.00 | 0.00 | 64 | 1013.9 |
| 20260831183101 | 95 | 174 | 6.0 | 10.0 | 0.00 | 0.00 | 0.00 | 64 | 1013.9 |
| 20260831182557 | 94 | 213 | 5.0 | 10.0 | 0.00 | 0.00 | 0.00 | 65 | 1014.0 |
| 20260831182047 | 92 | 218 | 5.0 | 10.0 | 0.00 | 0.00 | 0.00 | 67 | 1014.0 |
| 20260831181532 | 92 | 189 | 5.0 | 10.0 | 0.00 | 0.00 | 0.00 | 68 | 1014.0 |
| 20260831181026 | 92 | 172 | 5.0 | 9.0 | 0.00 | 0.00 | 0.00 | 70 | 1014.1 |
| 20260831180516 | 92 | 201 | 6.0 | 9.0 | 0.00 | 0.00 | 0.00 | 68 | 1014.1 |
| 20260831180006 | 92 | 217 | 7.0 | 9.0 | 0.00 | 0.00 | 0.00 | 67 | 1014.3 |
| 20260831175719 | 93 | 218 | 7.0 | 9.0 | 0.00 | 0.00 | 0.00 | 66 | 1014.3 |
| 20260831174950 | 93 | 225 | 6.0 | 9.0 | 0.00 | 0.00 | 0.00 | 66 | 1014.3 |
| 20260831174456 | 94 | 221 | 6.0 | 9.0 | 0.00 | 0.00 | 0.00 | 67 | 1014.4 |
| 20260831173951 | 94 | 214 | 6.0 | 8.0 | 0.00 | 0.00 | 0.00 | 66 | 1014.4 |
| 20260831173455 | 94 | 238 | 6.0 | 9.0 | 0.00 | 0.00 | 0.00 | 67 | 1014.4 |
| 20260831172951 | 93 | 202 | 6.0 | 9.0 | 0.00 | 0.00 | 0.00 | 68 | 1014.5 |
| 20260831172452 | 93 | 220 | 5.0 | 8.0 | 0.00 | 0.00 | 0.00 | 67 | 1014.5 |
| 20260831171946 | 93 | 234 | 5.0 | 8.0 | 0.00 | 0.00 | 0.00 | 67 | 1014.5 |
| 20260831171449 | 93 | 236 | 5.0 | 8.0 | 0.00 | 0.00 | 0.00 | 68 | 1014.5 |
| 20260831171216 | 92 | 225 | 5.0 | 8.0 | 0.00 | 0.00 | 0.00 | 70 | 1014.5 |
| 20260831170710 | 92 | 222 | 4.0 | 4.0 | 0.00 | 0.00 | 0.00 | 68 | 1014.5 |
| 20260831165852 | 91 | 216 | 4.0 | 7.0 | 0.00 | 0.00 | 0.00 | 70 | 1014.5 |
| 20260831165350 | 91 | 234 | 4.0 | 7.0 | 0.00 | 0.00 | 0.00 | 69 | 1014.5 |
| 20260831164839 | 91 | 229 | 4.0 | 7.0 | 0.00 | 0.00 | 0.00 | 70 | 1014.5 |
| 20260831164336 | 91 | 212 | 4.0 | 7.0 | 0.00 | 0.00 | 0.00 | 70 | 1014.5 |
| 20260831163835 | 91 | 249 | 3.0 | 7.0 | 0.00 | 0.00 | 0.00 | 69 | 1014.5 |
| 20260831163338 | 91 | 216 | 4.0 | 7.0 | 0.00 | 0.00 | 0.00 | 70 | 1014.5 |
| 20260831162834 | 90 | 238 | 3.0 | 7.0 | 0.00 | 0.00 | 0.00 | 71 | 1014.6 |
| 20260831162336 | 89 | 255 | 3.0 | 5.0 | 0.00 | 0.00 | 0.00 | 73 | 1014.6 |
| 20260831161838 | 90 | 237 | 4.0 | 5.0 | 0.00 | 0.00 | 0.00 | 73 | 1014.6 |
| 20260831161333 | 90 | 230 | 3.0 | 5.0 | 0.00 | 0.00 | 0.00 | 73 | 1014.9 |
| 20260831161055 | 90 | 247 | 3.0 | 5.0 | 0.00 | 0.00 | 0.00 | 74 | 1014.9 |
| 20260831160328 | 89 | 243 | 2.0 | 5.0 | 0.00 | 0.00 | 0.00 | 75 | 1014.9 |
| 20260831155826 | 88 | 228 | 2.0 | 5.0 | 0.00 | 0.00 | 0.00 | 76 | 1014.7 |
| 20260831155325 | 88 | 223 | 3.0 | 5.0 | 0.00 | 0.00 | 0.00 | 77 | 1014.7 |
| 20260831154828 | 88 | 223 | 3.0 | 5.0 | 0.00 | 0.00 | 0.00 | 78 | 1014.7 |
| 20260831154546 | 88 | 240 | 2.0 | 4.0 | 0.00 | 0.00 | 0.00 | 78 | 1014.6 |
| 20260831154327 | 88 | 240 | 2.0 | 4.0 | 0.00 | 0.00 | 0.00 | 78 | 1014.6 |
| 20260831153824 | 88 | 347 | 1.0 | 4.0 | 0.00 | 0.00 | 0.00 | 79 | 1014.6 |
| 20260831153324 | 87 | 348 | 2.0 | 4.0 | 0.00 | 0.00 | 0.00 | 78 | 1014.6 |
| 20260831152821 | 87 | 347 | 3.0 | 5.0 | 0.00 | 0.00 | 0.00 | 79 | 1014.7 |
| 20260831152319 | 88 | 340 | 3.0 | 5.0 | 0.00 | 0.00 | 0.00 | 79 | 1014.7 |
| 20260831152037 | 88 | 258 | 2.0 | 5.0 | 0.00 | 0.00 | 0.00 | 78 | 1014.7 |
| 20260831151315 | 89 | 252 | 3.0 | 5.0 | 0.00 | 0.00 | 0.00 | 79 | 1014.6 |
| 20260831151029 | 88 | 256 | 3.0 | 5.0 | 0.00 | 0.00 | 0.00 | 80 | 1014.6 |
| 20260831150309 | 87 | 249 | 2.0 | 5.0 | 0.00 | 0.00 | 0.00 | 80 | 1014.6 |
| 20260831145811 | 87 | 251 | 2.0 | 5.0 | 0.00 | 0.00 | 0.00 | 79 | 1014.5 |
| 20260831145310 | 88 | 249 | 3.0 | 7.0 | 0.00 | 0.00 | 0.00 | 79 | 1014.5 |
| 20260831144811 | 88 | 246 | 2.0 | 7.0 | 0.00 | 0.00 | 0.00 | 79 | 1014.5 |
| 20260831144310 | 88 | 226 | 2.0 | 7.0 | 0.00 | 0.00 | 0.00 | 79 | 1014.4 |
| 20260831143811 | 88 | 220 | 2.0 | 7.0 | 0.00 | 0.00 | 0.00 | 78 | 1014.4 |
| 20260831143308 | 88 | 213 | 1.0 | 4.0 | 0.00 | 0.00 | 0.00 | 80 | 1014.4 |
| 20260831142806 | 88 | 139 | 1.0 | 3.0 | 0.00 | 0.00 | 0.00 | 79 | 1014.3 |
| 20260831142524 | 89 | 137 | 1.0 | 3.0 | 0.00 | 0.00 | 0.00 | 79 | 1014.3 |
| 20260831141803 | 88 | 137 | 1.0 | 3.0 | 0.00 | 0.00 | 0.00 | 80 | 1014.3 |
| 20260831141248 | 88 | 108 | 1.0 | 3.0 | 0.00 | 0.00 | 0.00 | 80 | 1014.3 |
| 20260831140742 | 87 | 105 | 1.0 | 4.0 | 0.00 | 0.00 | 0.00 | 81 | 1014.3 |
| 20260831140506 | 87 | 105 | 2.0 | 4.0 | 0.00 | 0.00 | 0.00 | 82 | 1014.3 |
| 20260831135724 | 86 | 99 | 1.0 | 4.0 | 0.00 | 0.00 | 0.00 | 82 | 1014.2 |
| 20260831135212 | 86 | 95 | 2.0 | 3.0 | 0.00 | 0.00 | 0.00 | 84 | 1014.2 |
| 20260831134658 | 85 | 95 | 2.0 | 3.0 | 0.00 | 0.00 | 0.00 | 85 | 1014.2 |
| 20260831134156 | 84 | 90 | 1.0 | 2.0 | 0.00 | 0.00 | 0.00 | 87 | 1014.1 |
| 20260831133650 | 83 | 90 | 1.0 | 3.0 | 0.00 | 0.00 | 0.00 | 86 | 1014.1 |
| 20260831133145 | 83 | 90 | 1.0 | 3.0 | 0.00 | 0.00 | 0.00 | 87 | 1014.1 |
| 20260831132634 | 82 | 90 | 1.0 | 3.0 | 0.00 | 0.00 | 0.00 | 88 | 1013.9 |
| 20260831132138 | 81 | 90 | 2.0 | 3.0 | 0.00 | 0.00 | 0.00 | 89 | 1013.9 |
| 20260831131633 | 80 | 90 | 2.0 | 5.0 | 0.00 | 0.00 | 0.00 | 89 | 1013.9 |
| 20260831131128 | 79 | 90 | 1.0 | 5.0 | 0.00 | 0.00 | 0.00 | 89 | 1013.5 |
| 20260831130629 | 79 | 71 | 0.0 | 0.0 | 0.00 | 0.00 | 0.00 | 90 | 1013.5 |
| 20260831130130 | 78 | 70 | 0.0 | 0.0 | 0.00 | 0.00 | 0.00 | 91 | 1013.5 |
| 20260831125627 | 77 | 70 | 0.0 | 0.0 | 0.00 | 0.00 | 0.00 | 91 | 1013.4 |
| 20260831125125 | 76 | 70 | 0.0 | 0.0 | 0.00 | 0.00 | 0.00 | 92 | 1013.4 |
| 20260831124626 | 76 | 70 | 0.0 | 2.0 | 0.00 | 0.00 | 0.00 | 92 | 1013.4 |
| 20260831124126 | 76 | 69 | 0.0 | 2.0 | 0.00 | 0.00 | 0.00 | 92 | 1013.2 |
| 20260831123851 | 76 | 69 | 0.0 | 2.0 | 0.00 | 0.00 | 0.00 | 92 | 1013.2 |
| 20260831123630 | 76 | 69 | 0.0 | 2.0 | 0.00 | 0.00 | 0.00 | 92 | 1013.2 |
| 20260831123125 | 76 | 69 | 0.0 | 2.0 | 0.00 | 0.00 | 0.00 | 93 | 1013.2 |
| 20260831122627 | 75 | 69 | 0.0 | 2.0 | 0.00 | 0.00 | 0.00 | 92 | 1013.0 |
| 20260831122115 | 75 | 69 | 0.0 | 2.0 | 0.00 | 0.00 | 0.00 | 92 | 1013.0 |
| 20260831121601 | 75 | 69 | 1.0 | 4.0 | 0.00 | 0.00 | 0.00 | 92 | 1013.0 |
| 20260831121046 | 75 | 69 | 1.0 | 4.0 | 0.00 | 0.00 | 0.00 | 92 | 1013.1 |
| 20260831120534 | 75 | 68 | 2.0 | 4.0 | 0.00 | 0.00 | 0.00 | 92 | 1013.1 |
| 20260831120034 | 75 | 68 | 2.0 | 4.0 | 0.00 | 0.00 | 0.00 | 92 | 1013.1 |
| 20260831115534 | 75 | 69 | 1.0 | 3.0 | 0.00 | 0.00 | 0.00 | 92 | 1013.0 |
| 20260831115032 | 75 | 69 | 2.0 | 3.0 | 0.00 | 0.00 | 0.00 | 92 | 1013.0 |
| 20260831114534 | 75 | 69 | 1.0 | 4.0 | 0.00 | 0.00 | 0.00 | 92 | 1013.0 |
| 20260831114033 | 75 | 69 | 2.0 | 4.0 | 0.00 | 0.00 | 0.00 | 92 | 1012.9 |
| 20260831113532 | 75 | 69 | 2.0 | 5.0 | 0.00 | 0.00 | 0.00 | 92 | 1012.9 |
| 20260831113032 | 75 | 70 | 3.0 | 5.0 | 0.00 | 0.00 | 0.00 | 92 | 1012.9 |
| 20260831112522 | 75 | 66 | 3.0 | 5.0 | 0.00 | 0.00 | 0.00 | 92 | 1013.0 |
| 20260831112238 | 75 | 55 | 3.0 | 5.0 | 0.00 | 0.00 | 0.00 | 92 | 1013.0 |
| 20260831111457 | 75 | 55 | 3.0 | 5.0 | 0.00 | 0.00 | 0.00 | 92 | 1013.0 |
| 20260831110956 | 75 | 54 | 3.0 | 5.0 | 0.00 | 0.00 | 0.00 | 92 | 1013.0 |
| 20260831110449 | 75 | 57 | 3.0 | 4.0 | 0.00 | 0.00 | 0.00 | 92 | 1013.0 |
| 20260831105940 | 75 | 57 | 3.0 | 5.0 | 0.00 | 0.00 | 0.00 | 92 | 1013.0 |
| 20260831105653 | 75 | 55 | 3.0 | 5.0 | 0.00 | 0.00 | 0.00 | 92 | 1013.0 |
| 20260831104920 | 75 | 53 | 3.0 | 5.0 | 0.00 | 0.00 | 0.00 | 92 | 1013.0 |
| 20260831104416 | 75 | 54 | 3.0 | 5.0 | 0.00 | 0.00 | 0.00 | 92 | 1012.9 |
| 20260831103918 | 75 | 54 | 2.0 | 4.0 | 0.00 | 0.00 | 0.00 | 92 | 1012.9 |
| 20260831103636 | 75 | 58 | 2.0 | 4.0 | 0.00 | 0.00 | 0.00 | 92 | 1012.9 |
| 20260831102917 | 75 | 59 | 2.0 | 4.0 | 0.00 | 0.00 | 0.00 | 92 | 1012.9 |
| 20260831102416 | 75 | 59 | 2.0 | 4.0 | 0.00 | 0.00 | 0.00 | 91 | 1012.9 |
| 20260831101915 | 75 | 59 | 2.0 | 4.0 | 0.00 | 0.00 | 0.00 | 91 | 1012.9 |
| 20260831100913 | 75 | 59 | 3.0 | 4.0 | 0.00 | 0.00 | 0.00 | 91 | 1012.9 |
| 20260831100411 | 75 | 59 | 3.0 | 4.0 | 0.00 | 0.00 | 0.00 | 92 | 1012.9 |
| 20260831095909 | 75 | 59 | 3.0 | 4.0 | 0.00 | 0.00 | 0.00 | 92 | 1012.9 |
| 20260831095407 | 75 | 61 | 3.0 | 4.0 | 0.00 | 0.00 | 0.00 | 92 | 1012.9 |
| 20260831094905 | 75 | 53 | 3.0 | 4.0 | 0.00 | 0.00 | 0.00 | 92 | 1012.9 |
| 20260831094400 | 75 | 53 | 3.0 | 4.0 | 0.00 | 0.00 | 0.00 | 92 | 1012.9 |
| 20260831094113 | 75 | 53 | 3.0 | 4.0 | 0.00 | 0.00 | 0.00 | 91 | 1012.9 |
| 20260831093340 | 75 | 52 | 3.0 | 4.0 | 0.00 | 0.00 | 0.00 | 91 | 1012.9 |
| 20260831092834 | 76 | 53 | 3.0 | 4.0 | 0.00 | 0.00 | 0.00 | 91 | 1013.0 |
| 20260831092328 | 76 | 57 | 2.0 | 4.0 | 0.00 | 0.00 | 0.00 | 91 | 1013.0 |
| 20260831091822 | 76 | 59 | 3.0 | 5.0 | 0.00 | 0.00 | 0.00 | 91 | 1013.0 |
| 20260831091307 | 76 | 59 | 3.0 | 5.0 | 0.00 | 0.00 | 0.00 | 91 | 1012.9 |
| 20260831090801 | 76 | 61 | 3.0 | 4.0 | 0.00 | 0.00 | 0.00 | 91 | 1012.9 |
| 20260831090252 | 76 | 62 | 2.0 | 4.0 | 0.00 | 0.00 | 0.00 | 91 | 1012.9 |
| 20260831085749 | 76 | 62 | 1.0 | 3.0 | 0.00 | 0.00 | 0.00 | 92 | 1012.9 |
| 20260831085248 | 76 | 62 | 1.0 | 3.0 | 0.00 | 0.00 | 0.00 | 91 | 1012.9 |
| 20260831084749 | 76 | 62 | 2.0 | 4.0 | 0.00 | 0.00 | 0.00 | 91 | 1012.9 |
| 20260831084246 | 76 | 62 | 2.0 | 4.0 | 0.00 | 0.00 | 0.00 | 91 | 1012.9 |
| 20260831083745 | 76 | 62 | 2.0 | 4.0 | 0.00 | 0.00 | 0.00 | 91 | 1012.9 |
| 20260831083244 | 76 | 62 | 2.0 | 4.0 | 0.00 | 0.00 | 0.00 | 91 | 1012.9 |
| 20260831082746 | 76 | 63 | 2.0 | 4.0 | 0.00 | 0.00 | 0.00 | 91 | 1012.9 |
| 20260831082245 | 76 | 64 | 2.0 | 4.0 | 0.00 | 0.00 | 0.00 | 91 | 1012.9 |
| 20260831081743 | 76 | 65 | 2.0 | 4.0 | 0.00 | 0.00 | 0.00 | 91 | 1012.9 |
| 20260831081241 | 76 | 95 | 1.0 | 3.0 | 0.00 | 0.00 | 0.00 | 91 | 1012.9 |
| 20260831081003 | 76 | 138 | 1.0 | 3.0 | 0.00 | 0.00 | 0.00 | 91 | 1012.9 |
| 20260831080239 | 76 | 139 | 1.0 | 4.0 | 0.00 | 0.00 | 0.00 | 91 | 1012.9 |
| 20260831075727 | 76 | 139 | 1.0 | 4.0 | 0.00 | 0.00 | 0.00 | 91 | 1013.0 |
| 20260831075211 | 76 | 139 | 2.0 | 4.0 | 0.00 | 0.00 | 0.00 | 91 | 1013.0 |
| 20260831074655 | 76 | 139 | 2.0 | 4.0 | 0.00 | 0.00 | 0.00 | 91 | 1013.0 |
| 20260831073653 | 76 | 139 | 2.0 | 3.0 | 0.00 | 0.00 | 0.00 | 90 | 1013.1 |
| 20260831073152 | 76 | 139 | 2.0 | 4.0 | 0.00 | 0.00 | 0.00 | 91 | 1013.1 |
| 20260831072652 | 76 | 139 | 1.0 | 4.0 | 0.00 | 0.00 | 0.00 | 91 | 1013.2 |
| 20260831072154 | 76 | 139 | 2.0 | 4.0 | 0.00 | 0.00 | 0.00 | 91 | 1013.2 |
| 20260831071654 | 76 | 139 | 2.0 | 4.0 | 0.00 | 0.00 | 0.00 | 91 | 1013.2 |
| 20260831071421 | 76 | 140 | 2.0 | 4.0 | 0.00 | 0.00 | 0.00 | 91 | 1013.2 |
| 20260831070641 | 76 | 140 | 2.0 | 4.0 | 0.00 | 0.00 | 0.00 | 91 | 1013.2 |
| 20260831070138 | 76 | 140 | 2.0 | 4.0 | 0.00 | 0.00 | 0.00 | 91 | 1013.2 |
| 20260831065638 | 76 | 139 | 2.0 | 4.0 | 0.00 | 0.00 | 0.00 | 91 | 1013.4 |
| 20260831065137 | 76 | 139 | 2.0 | 4.0 | 0.00 | 0.00 | 0.00 | 91 | 1013.4 |
| 20260831064857 | 76 | 139 | 2.0 | 4.0 | 0.00 | 0.00 | 0.00 | 91 | 1013.4 |
| 20260831064133 | 76 | 139 | 2.0 | 4.0 | 0.00 | 0.00 | 0.00 | 91 | 1013.4 |
| 20260831063631 | 76 | 140 | 3.0 | 4.0 | 0.00 | 0.00 | 0.00 | 89 | 1013.4 |
| 20260831063129 | 77 | 139 | 3.0 | 4.0 | 0.00 | 0.00 | 0.00 | 89 | 1013.4 |
| 20260831062628 | 77 | 124 | 2.0 | 4.0 | 0.00 | 0.00 | 0.00 | 90 | 1013.6 |
| 20260831062128 | 77 | 124 | 2.0 | 3.0 | 0.00 | 0.00 | 0.00 | 90 | 1013.6 |
| 20260831061626 | 77 | 124 | 2.0 | 2.0 | 0.00 | 0.00 | 0.00 | 90 | 1013.6 |
| 20260831061125 | 77 | 124 | 1.0 | 2.0 | 0.00 | 0.00 | 0.00 | 90 | 1013.5 |
| 20260831060623 | 76 | 124 | 0.0 | 2.0 | 0.00 | 0.00 | 0.00 | 90 | 1013.5 |
| 20260831060122 | 76 | 124 | 0.0 | 0.0 | 0.00 | 0.00 | 0.00 | 90 | 1013.5 |
| 20260831055621 | 76 | 124 | 0.0 | 0.0 | 0.00 | 0.00 | 0.00 | 90 | 1013.5 |
| 20260831055117 | 77 | 124 | 0.0 | 2.0 | 0.00 | 0.00 | 0.00 | 90 | 1013.5 |
| 20260831054617 | 77 | 124 | 0.0 | 2.0 | 0.00 | 0.00 | 0.00 | 89 | 1013.5 |
| 20260831054117 | 77 | 124 | 0.0 | 2.0 | 0.00 | 0.00 | 0.00 | 89 | 1013.4 |
| 20260831053617 | 77 | 124 | 1.0 | 3.0 | 0.00 | 0.00 | 0.00 | 89 | 1013.4 |
| 20260831053114 | 77 | 124 | 2.0 | 3.0 | 0.00 | 0.00 | 0.00 | 89 | 1013.4 |
| 20260831052614 | 77 | 124 | 2.0 | 3.0 | 0.00 | 0.00 | 0.00 | 89 | 1013.2 |
| 20260831052111 | 78 | 124 | 2.0 | 3.0 | 0.00 | 0.00 | 0.00 | 89 | 1013.2 |
| 20260831051608 | 78 | 124 | 2.0 | 4.0 | 0.00 | 0.00 | 0.00 | 89 | 1013.2 |
| 20260831051105 | 78 | 124 | 2.0 | 4.0 | 0.00 | 0.00 | 0.00 | 89 | 1012.9 |
| 20260831050603 | 78 | 123 | 2.0 | 4.0 | 0.00 | 0.00 | 0.00 | 89 | 1012.9 |
| 20260831050104 | 78 | 122 | 2.0 | 3.0 | 0.00 | 0.00 | 0.00 | 88 | 1012.9 |
| 20260831045558 | 78 | 122 | 3.0 | 4.0 | 0.00 | 0.00 | 0.00 | 89 | 1012.9 |
| 20260831045048 | 78 | 122 | 4.0 | 5.0 | 0.00 | 0.00 | 0.00 | 88 | 1012.9 |
| 20260831044538 | 78 | 124 | 4.0 | 6.0 | 0.00 | 0.00 | 0.00 | 89 | 1012.9 |
| 20260831044034 | 78 | 132 | 4.0 | 6.0 | 0.00 | 0.00 | 0.00 | 89 | 1012.5 |